sat.trackr.live / text

‹ back to catalog

STARLINK-37521

NORAD 69822 · 2026-154D

PAYLOAD ACTIVE UNKNOWN

§ Identity

Operator
Country
US
Launch date
2026-07-05
Launch site
AFETR
Launch vehicle
Mass (kg)
RCS (m²)

Purposes: comms

External: N2YO · Heavens-Above · Gunter

§ Orbital elements

Epoch: 2026-09-20T04:56:38.513184Z

Period
93.85 min
Inclination
53.1615°
Eccentricity
0.0000963
Mean motion
15.34404844 rev/d
Perigee alt
462.0 km
Apogee alt
463.3 km
Semi-major
6,840.8 km
B*
2.0398e-4
RAAN
333.0563°
Arg perigee
74.9270°
Mean anomaly
285.1839°
Rev number
1,319

§ Raw data

STARLINK-375211 69822U 26154D   26263.20600131  .00006523  00000+0  20398-3 0  99972 69822  53.1615 333.0563 0000963  74.9270 285.1839 15.34404844 13197

JSON: /api/v1/satellites/69822 · /tle

For live sub-satellite position, see the globe view (requires WebGL).

§ Visibility from observer

Set your observer location to see the next 7 days of passes ≥ 10°. The values pass through the URL so the page stays shareable.

No JS? Fill the form by hand. The geolocation button needs JavaScript.